DEOOG EDMO-EDMA

Flight info

Callsign DEOOG
Flight time 0h 20m
Altitude 4500
Route DCT
Aircraft C172/L-VGD/A

Departure

Time 2026-04-28 15:34
Airport Oberpfaffenhofen Airport (EDMO)

Arrival

Time 2026-04-28 15:54
Airport Augsburg Airport (EDMA)
Time Latitude Longitude Altitude Speed Heading
2026-04-28 15:14 48.08342 11.29311 1909 ft 0 kts 104°
2026-04-28 15:23 48.08345 11.29336 1909 ft 6 kts 60°
2026-04-28 15:23 48.08386 11.29374 1909 ft 9 kts 357°
2026-04-28 15:23 48.08475 11.29363 1907 ft 12 kts 355°
2026-04-28 15:24 48.08561 11.29352 1904 ft 11 kts 355°
2026-04-28 15:24 48.08596 11.29347 1902 ft 0 kts 354°
2026-04-28 15:25 48.08635 11.29341 1901 ft 10 kts 355°
2026-04-28 15:25 48.08746 11.29328 1898 ft 17 kts 355°
2026-04-28 15:25 48.08860 11.29257 1895 ft 17 kts 285°
2026-04-28 15:25 48.08861 11.29050 1894 ft 18 kts 270°
2026-04-28 15:26 48.08857 11.28840 1893 ft 17 kts 253°
2026-04-28 15:26 48.08788 11.28713 1897 ft 11 kts 222°
2026-04-28 15:26 48.08712 11.28608 1899 ft 16 kts 221°
2026-04-28 15:26 48.08608 11.28466 1902 ft 20 kts 223°
2026-04-28 15:27 48.08500 11.28319 1906 ft 19 kts 220°
2026-04-28 15:27 48.08383 11.28159 1908 ft 22 kts 222°
2026-04-28 15:27 48.08256 11.27985 1911 ft 23 kts 221°
2026-04-28 15:27 48.08128 11.27811 1917 ft 21 kts 222°
2026-04-28 15:28 48.07988 11.27780 1922 ft 19 kts 179°
2026-04-28 15:28 48.07842 11.27716 1927 ft 22 kts 210°
2026-04-28 15:28 48.07722 11.27563 1935 ft 23 kts 222°
2026-04-28 15:28 48.07606 11.27404 1942 ft 19 kts 221°
2026-04-28 15:29 48.07511 11.27283 1946 ft 13 kts 198°
2026-04-28 15:29 48.07496 11.27282 1947 ft 0 kts 166°
2026-04-28 15:32 48.07493 11.27283 1947 ft 3 kts 163°
2026-04-28 15:32 48.07456 11.27357 1945 ft 12 kts 82°
2026-04-28 15:32 48.07589 11.27559 1937 ft 50 kts 41°
2026-04-28 15:33 48.07896 11.27984 2070 ft 58 kts 40°
2026-04-28 15:33 48.08227 11.28426 2194 ft 66 kts 39°
2026-04-28 15:33 48.08711 11.28645 2300 ft 83 kts 346°
2026-04-28 15:33 48.09102 11.27822 2443 ft 98 kts 288°
2026-04-28 15:34 48.09249 11.26719 2623 ft 99 kts 282°
2026-04-28 15:34 48.09340 11.25597 2774 ft 103 kts 280°
2026-04-28 15:34 48.09424 11.24464 2919 ft 105 kts 280°
2026-04-28 15:34 48.09432 11.23309 3082 ft 108 kts 263°
2026-04-28 15:35 48.09314 11.22095 3118 ft 122 kts 263°
2026-04-28 15:35 48.09055 11.19524 3024 ft 120 kts 263°
2026-04-28 15:35 48.08932 11.18285 3013 ft 119 kts 263°
2026-04-28 15:36 48.08809 11.16990 3012 ft 118 kts 263°
2026-04-28 15:36 48.08694 11.15747 3003 ft 117 kts 264°
2026-04-28 15:36 48.08587 11.14545 3006 ft 117 kts 263°
2026-04-28 15:36 48.08482 11.13329 3011 ft 117 kts 263°
2026-04-28 15:37 48.08379 11.12135 3012 ft 117 kts 263°
2026-04-28 15:37 48.08276 11.10901 3013 ft 117 kts 263°
2026-04-28 15:37 48.08182 11.09695 3099 ft 112 kts 263°
2026-04-28 15:37 48.08315 11.08582 3177 ft 104 kts 304°
2026-04-28 15:38 48.08814 11.07881 3269 ft 92 kts 339°
2026-04-28 15:38 48.09400 11.07468 3367 ft 86 kts 351°
2026-04-28 15:38 48.09981 11.07205 3464 ft 83 kts 357°
2026-04-28 15:38 48.10564 11.07072 3566 ft 84 kts
2026-04-28 15:39 48.11169 11.06961 3667 ft 86 kts
2026-04-28 15:39 48.11781 11.06850 3763 ft 87 kts
2026-04-28 15:39 48.12391 11.06739 3856 ft 89 kts
2026-04-28 15:39 48.13006 11.06626 3951 ft 89 kts
2026-04-28 15:40 48.13607 11.06523 3993 ft 94 kts
2026-04-28 15:40 48.14280 11.06425 4003 ft 101 kts
2026-04-28 15:40 48.14997 11.06324 4002 ft 105 kts
2026-04-28 15:40 48.15739 11.06227 4002 ft 107 kts
2026-04-28 15:41 48.16498 11.06134 4000 ft 108 kts
2026-04-28 15:41 48.17259 11.06050 3997 ft 109 kts
2026-04-28 15:41 48.18011 11.05959 3994 ft 108 kts
2026-04-28 15:41 48.18757 11.05866 3989 ft 108 kts
2026-04-28 15:42 48.19509 11.05770 3992 ft 107 kts
2026-04-28 15:42 48.20259 11.05674 3994 ft 107 kts
2026-04-28 15:42 48.21004 11.05578 3997 ft 107 kts
2026-04-28 15:42 48.21757 11.05481 3995 ft 108 kts
2026-04-28 15:43 48.22500 11.05380 3995 ft 108 kts
2026-04-28 15:43 48.23266 11.05271 3996 ft 108 kts
2026-04-28 15:43 48.24033 11.05169 3991 ft 108 kts
2026-04-28 15:43 48.24789 11.05070 3993 ft 108 kts
2026-04-28 15:44 48.25534 11.04976 3990 ft 107 kts
2026-04-28 15:44 48.26292 11.04882 3990 ft 107 kts
2026-04-28 15:44 48.27039 11.04792 3996 ft 107 kts
2026-04-28 15:44 48.27804 11.04695 3956 ft 111 kts
2026-04-28 15:45 48.28542 11.04739 3848 ft 99 kts 13°
2026-04-28 15:45 48.29228 11.04822 3741 ft 93 kts 14°
2026-04-28 15:45 48.29868 11.04888 3641 ft 90 kts 14°
2026-04-28 15:45 48.30487 11.04947 3524 ft 89 kts 14°
2026-04-28 15:46 48.31109 11.04998 3383 ft 89 kts 14°
2026-04-28 15:46 48.31739 11.05046 3258 ft 89 kts 13°
2026-04-28 15:46 48.32359 11.05093 3142 ft 89 kts 12°
2026-04-28 15:46 48.32978 11.05147 3036 ft 92 kts 12°
2026-04-28 15:47 48.33623 11.05216 3010 ft 93 kts 12°
2026-04-28 15:47 48.34282 11.05300 3013 ft 94 kts 13°
2026-04-28 15:47 48.34952 11.05385 3003 ft 95 kts 13°
2026-04-28 15:47 48.35655 11.05473 3000 ft 95 kts 12°
2026-04-28 15:48 48.36357 11.05554 3009 ft 95 kts 13°
2026-04-28 15:48 48.37050 11.05627 3001 ft 96 kts 13°
2026-04-28 15:48 48.37764 11.05701 3011 ft 96 kts 13°
2026-04-28 15:48 48.38476 11.05777 3004 ft 96 kts 13°
2026-04-28 15:49 48.39166 11.05850 3006 ft 95 kts 13°
2026-04-28 15:49 48.39881 11.05555 3013 ft 109 kts 330°
2026-04-28 15:49 48.40301 11.04484 3015 ft 120 kts 292°
2026-04-28 15:49 48.40394 11.03142 3016 ft 123 kts 274°
2026-04-28 15:50 48.40404 11.01774 3014 ft 124 kts 274°
2026-04-28 15:50 48.40413 11.00447 3005 ft 125 kts 273°
2026-04-28 15:50 48.40421 10.99123 3001 ft 124 kts 272°
2026-04-28 15:50 48.40428 10.97745 3000 ft 123 kts 272°
2026-04-28 15:51 48.40435 10.96428 2997 ft 122 kts 273°
2026-04-28 15:51 48.40441 10.95102 3004 ft 122 kts 273°
2026-04-28 15:51 48.40446 10.93764 3010 ft 123 kts 273°
2026-04-28 15:51 48.40246 10.92408 2941 ft 123 kts 244°
2026-04-28 15:52 48.39848 10.91181 2756 ft 123 kts 242°
2026-04-28 15:52 48.39492 10.90032 2575 ft 109 kts 263°
2026-04-28 15:52 48.39812 10.89229 2435 ft 77 kts 340°
2026-04-28 15:52 48.40285 10.88864 2324 ft 70 kts 349°
2026-04-28 15:53 48.40768 10.88753 2196 ft 65 kts 18°
2026-04-28 15:53 48.41216 10.89053 2070 ft 65 kts 39°
2026-04-28 15:53 48.41589 10.89514 1979 ft 64 kts 46°
2026-04-28 15:53 48.41836 10.90136 1870 ft 66 kts 70°
2026-04-28 15:54 48.41998 10.90833 1758 ft 67 kts 70°
2026-04-28 15:54 48.42159 10.91542 1657 ft 66 kts 71°
2026-04-28 15:54 48.42316 10.92254 1545 ft 65 kts 71°
2026-04-28 15:54 48.42447 10.92847 1512 ft 44 kts 71°
2026-04-28 15:55 48.42515 10.93158 1515 ft 10 kts 91°
2026-04-28 15:55 48.42487 10.93192 1515 ft 2 kts 161°
2026-04-28 15:55 48.42473 10.93197 1515 ft 6 kts 176°
2026-04-28 15:55 48.42453 10.93175 1515 ft 0 kts 252°
2026-04-28 15:57 48.42445 10.93135 1514 ft 8 kts 251°
2026-04-28 15:57 48.42424 10.93120 1514 ft 0 kts 159°
2026-04-28 15:58 48.42422 10.93120 1514 ft 0 kts 162°